This is the latest recevied weather packets stored in our database for station/object WA0GMH-1. If no packets are shown the sender has not sent any weather packets the latest 1 day(s).
| Time | Temp. | Humidity | Pressure | Rain* | Wind** | Luminosity | Snow |
|---|---|---|---|---|---|---|---|
| 1778110180 | 17.22° C | 57% | 1014.9 hPa | 0 mm | - | - | - |
| 1778108571 | 17.78° C | 60% | 1014.9 hPa | 0 mm | - | - | - |
| 1778106158 | 17.78° C | 57% | 1015.3 hPa | 0 mm | - | - | - |
| 1778105353 | 17.22° C | 59% | 1015.6 hPa | 0 mm | - | - | - |
| 1778103744 | 17.78° C | 57% | 1015.7 hPa | 0 mm | - | - | - |
| 1778102537 | 17.78° C | 60% | 1015.8 hPa | 0 mm | - | - | - |
| 1778102135 | 17.78° C | 59% | 1015.9 hPa | 0 mm | - | - | - |
| 1778099319 | 17.22° C | 60% | 1016.5 hPa | 0 mm | - | - | - |
| 1778097710 | 16.67° C | 61% | 1016.9 hPa | 0 mm | - | - | - |
| 1778094492 | 14.44° C | 65% | 1017.2 hPa | 0 mm | - | - | - |
| 1778092883 | 14.44° C | 66% | 1017.5 hPa | 0 mm | - | - | - |
| 1778090065 | 13.89° C | 68% | 1018.2 hPa | 0 mm | - | - | - |
| 1778089662 | 13.89° C | 68% | 1018.3 hPa | 0 mm | - | - | - |
| 1778088456 | 13.33° C | 70% | 1018.1 hPa | 0 mm | - | - | - |
| 1778088053 | 12.78° C | 70% | 1018.2 hPa | 0 mm | - | - | - |
| 1778086847 | 12.22° C | 70% | 1018.2 hPa | 0 mm | - | - | - |
| 1778084835 | 11.11° C | 72% | 1018.2 hPa | 0 mm | - | - | - |
| 1778083629 | 10.56° C | 75% | 1018.2 hPa | 0 mm | - | - | - |
| 1778082020 | 9.44° C | 83% | 1018.3 hPa | 0 mm | - | - | - |
| 1778081617 | 9.44° C | 83% | 1018.1 hPa | 0 mm | - | - | - |
| 1778080411 | 8.33° C | 100% | 1018.5 hPa | 0 mm | - | - | - |
| 1778078802 | 7.78° C | 6% | 1018.4 hPa | 0 mm | - | - | - |
| 1778077193 | 6.11° C | 9% | 1018.4 hPa | 0 mm | - | - | - |
| 1778076790 | 6.11° C | 10% | 1018.4 hPa | 0 mm | - | - | - |
| 1778075584 | 5° C | 13% | 1018.3 hPa | 0 mm | - | - | - |
* Rain since midnight (hover to see other rain measurements)
** Current wind speed in m/s (hover to see current wind gust speed)